{"data":{"norad_id":45555,"epoch":"2026-09-20T03:30:26.595360Z","epoch_age_seconds":44983,"freshness":"FRESH","line1":"1 45555U 20025AA  26263.14614115  .00127330  00000+0  44642-3 0  9993","line2":"2 45555  53.0321 184.4457 0004963  87.6839 272.4753 15.88363137356207","mean_motion":15.88363137,"eccentricity":0.0004963,"inclination_deg":53.0321,"raan_deg":184.4457,"arg_perigee_deg":87.6839,"mean_anomaly_deg":272.4753,"bstar":0.00044642,"rev_number":35620,"period_min":90.659369161625,"perigee_km":303.55390411806,"apogee_km":310.18944372779,"semimajor_km":6685.0086739229,"source":"CELESTRAK","updated_at":"2026-09-20T09:00:38.446860Z"}}